Orbital Elements at Epoch 2459200.5 (2020-Dec-17.0) TDB
Reference: JPL 24 (heliocentric ecliptic J2000)
Element | Value | Uncertainty (1-sigma) | Units |
e | .1186959384070242 | 3.0798e-08 | |
a | 2.287511587645548 | 8.6005e-09 | au |
q | 2.015993253133018 | 7.3351e-08 | au |
i | 5.757310210006495 | 3.2561e-06 | deg |
node | 144.3152257598671 | 3.8602e-05 | deg |
peri | 304.0439313650951 | 4.2368e-05 | deg |
M | 300.8451132706356 | 1.8096e-05 | deg |
tp | 2459408.149795276890 (2021-Jul-12.64979528) | 6.4054e-05 | TDB |
period | 1263.698240885524 3.46 | 7.1268e-06 1.951e-08 | d yr |
n | .2848781365302318 | 1.6066e-09 | deg/d |
Q | 2.559029922158078 | 9.6214e-09 | au |
|
| | Orbit Determination Parameters
Additional Information
|